Torna al catalogo

NOAA 16 DEB

AttivoPO
NORAD 42409·DEBRIS·🇺🇸 United States

Lanciato Sep 21, 2000 da Vandenberg Space Force Base

Loading…

Prossimi Passaggi (prossime 24 ore)

TLE

AggiornatoSource: Space-Track

Epoca: Sep 14, 2026, 10:46 UTC

1 42409U 00055TD  26257.44918421  .00015072  00000-0  18293-2 0  9994
2 42409  98.7819  73.5614 0018977  20.8476 339.3505 14.83538220548560

Traccia NOAA 16 DEB in tempo reale con AllMySat

Download on the App Store